Location: Ffm
(50.0000°N, 8.5000°E)
Time: 10:41:43
(UTC+01:00)

Envisat - Pass Details

Date: 03 November 2020
Orbit: 764 x 766 km, 98.1° (Epoch: 03 December)

Event Time Altitude Azimuth Distance (km) Brightness Sun altitude
Rises 05:18:04 0° 25° (NNE) 3,243 6.6 -19.8°
Reaches altitude 10° 05:20:59 10° 42° (NE) 2,311 6.0 -19.4°
Maximum altitude 05:24:43 20° 90° (E) 1,702 5.8 -18.7°
Drops below altitude 10° 05:28:26 10° 137° (SE) 2,297 6.1 -18.2°
Sets 05:31:18 0° 154° (SSE) 3,217 6.6 -17.7°
